Temp
-12 -11 -11 -11 -11 -11 -11 -11 -11 -11 -11 -11 -11 -11 -11 -11 -11 -11 -11 -10 -10 -10 -10 -9 -9 -9 -9 -9 -9 -9 -9 -9 -9
-12 -12 -12 -12 -11 -11 -11 -11 -11 -11 -11 -11 -11 -11 -11 -11 -12 -11 -11 -11 -11 -10 -10 -10 -10 -10 -10 -9 -9 -9 -9 -9 -9
-12 -12 -12 -12 -12 -12 -12 -11 -11 -11 -11 -11 -11 -11 -12 -12 -12 -12 -11 -11 -11 -11 -11 -10 -10 -10 -10 -10 -10 -9 -9 -9 -9
-11 -12 -12 -12 -12 -12 -12 -12 -12 -12 -12 -12 -12 -12 -11 -12 -12 -12 -12 -12 -12 -11 -11 -11 -11 -10 -10 -10 -10 -10 -9 -9 -9
-12 -12 -12 -12 -12 -12 -12 -12 -12 -12 -12 -12 -12 -12 -12 -12 -12 -12 -12 -12 -12 -12 -12 -11 -11 -11 -10 -11 -10 -10 -10 -10 -10
-12 -12 -12 -12 -12 -12 -12 -12 -12 -12 -12 -12 -12 -12 -12 -12 -12 -12 -12 -12 -12 -12 -12 -12 -12 -12 -11 -11 -11 -10 -10 -10 -10
-12 -12 -12 -12 -12 -12 -12 -12 -12 -12 -13 -13 -13 -13 -13 -13 -13 -12 -12 -13 -13 -12 -12 -12 -12 -12 -12 -11 -11 -10 -10 -10 -10
-11 -12 -12 -12 -12 -12 -12 -12 -12 -12 -13 -13 -13 -13 -13 -13 -14 -13 -13 -13 -13 -13 -13 -12 -12 -12 -12 -12 -11 -11 -10 -10 -10
-12 -12 -12 -12 -12 -12 -12 -12 -12 -12 -13 -13 -14 -13 -14 -14 -14 -14 -14 -13 -13 -13 -13 -13 -13 -12 -12 -12 -12 -11 -11 -10 -10
-12 -12 -12 -12 -12 -12 -12 -12 -13 -13 -13 -14 -14 -14 -14 -14 -14 -14 -14 -14 -14 -13 -13 -13 -13 -13 -13 -13 -12 -12 -12 -11 -11
-12 -12 -12 -12 -13 -13 -13 -13 -13 -14 -14 -14 -14 -14 -14 -14 -15 -15 -14 -14 -14 -14 -14 -14 -14 -13 -13 -13 -13 -12 -12 -11 -11
-12 -12 -13 -13 -13 -13 -13 -13 -13 -14 -14 -14 -14 -14 -15 -15 -15 -15 -15 -15 -14 -14 -14 -14 -14 -14 -14 -14 -13 -13 -13 -12 -12
-13 -13 -13 -13 -13 -13 -13 -13 -14 -14 -15 -15 -15 -15 -15 -15 -15 -15 -15 -15 -15 -15 -15 -14 -14 -15 -14 -14 -14 -14 -14 -13 -12
-13 -13 -13 -14 -14 -14 -14 -14 -14 -14 -15 -15 -15 -15 -16 -16 -16 -16 -16 -15 -15 -15 -15 -15 -15 -14 -15 -15 -14 -14 -14 -14 -14
-13 -14 -14 -14 -14 -14 -14 -14 -15 -15 -15 -15 -15 -16 -16 -16 -16 -16 -16 -16 -16 -16 -16 -15 -15 -15 -15 -15 -15 -15 -15 -15 -15
-14 -14 -14 -14 -14 -14 -15 -15 -15 -15 -16 -16 -15 -15 -16 -16 -16 -16 -16 -16 -16 -16 -16 -16 -15 -15 -15 -15 -15 -15 -15 -15 -15
-15 -15 -15 -14 -15 -15 -15 -15 -15 -16 -16 -16 -16 -15 -16 -16 -16 -16 -16 -16 -16 -16 -16 -16 -16 -16 -16 -15 -16 -16 -16 -15 -15
-15 -15 -15 -15 -15 -16 -16 -16 -16 -16 -16 -16 -16 -16 -16 -16 -16 -16 -16 -16 -16 -17 -16 -16 -16 -16 -16 -16 -16 -16 -16 -16 -16
-15 -15 -16 -16 -16 -16 -16 -16 -16 -16 -16 -17 -17 -17 -16 -16 -16 -16 -16 -16 -17 -17 -16 -16 -16 -17 -17 -16 -16 -16 -16 -16 -16
-16 -16 -16 -17 -17 -17 -17 -17 -17 -17 -17 -17 -17 -17 -17 -16 -16 -16 -16 -16 -16 -16 -16 -16 -16 -16 -17 -17 -17 -17 -17 -17 -17
Height
5806 5807 5807 5806 5807 5807 5806 5808 5808 5807 5808 5808 5808 5809 5809 5811 5812 5812 5813 5814 5815 5816 5818 5819 5821 5821 5824 5825 5827 5827 5828 5830 5832
5803 5803 5802 5803 5803 5803 5803 5803 5803 5805 5805 5804 5805 5805 5805 5806 5806 5807 5808 5810 5811 5811 5813 5814 5816 5817 5819 5821 5822 5824 5826 5826 5828
5800 5799 5798 5798 5799 5799 5799 5799 5799 5800 5800 5802 5802 5802 5801 5801 5802 5803 5804 5805 5806 5806 5809 5809 5811 5812 5814 5816 5818 5820 5821 5823 5824
5797 5796 5796 5796 5796 5795 5794 5795 5795 5795 5795 5795 5796 5796 5796 5796 5797 5798 5799 5800 5801 5801 5803 5805 5806 5806 5808 5810 5814 5816 5817 5818 5820
5794 5793 5792 5792 5791 5790 5790 5789 5789 5790 5789 5789 5789 5790 5790 5790 5791 5792 5793 5794 5795 5796 5798 5800 5801 5802 5803 5805 5808 5811 5812 5813 5815
5790 5789 5788 5788 5786 5784 5784 5783 5783 5783 5783 5783 5783 5783 5783 5783 5784 5785 5787 5787 5789 5789 5792 5793 5794 5796 5798 5800 5803 5805 5806 5808 5809
5785 5784 5783 5782 5781 5780 5778 5778 5777 5777 5776 5775 5775 5776 5777 5777 5777 5778 5779 5780 5782 5782 5784 5786 5788 5789 5791 5794 5796 5797 5799 5800 5802
5781 5780 5779 5778 5777 5775 5773 5772 5771 5770 5769 5768 5769 5769 5769 5770 5770 5772 5773 5773 5774 5776 5777 5778 5780 5782 5784 5786 5787 5789 5791 5792 5794
5775 5774 5773 5772 5771 5769 5767 5766 5764 5763 5761 5761 5762 5762 5762 5763 5764 5767 5766 5766 5767 5768 5770 5772 5773 5774 5776 5776 5779 5780 5783 5783 5785
5769 5768 5766 5765 5763 5762 5760 5758 5756 5755 5754 5753 5753 5754 5754 5754 5756 5758 5758 5759 5760 5761 5762 5764 5765 5766 5765 5767 5768 5772 5774 5776 5777
5762 5761 5760 5758 5756 5755 5753 5751 5750 5749 5747 5746 5746 5746 5746 5747 5748 5750 5751 5751 5753 5754 5754 5756 5757 5757 5756 5757 5759 5761 5763 5765 5767
5755 5754 5753 5751 5750 5748 5746 5744 5742 5741 5741 5739 5738 5738 5739 5739 5740 5742 5743 5744 5745 5747 5748 5748 5749 5750 5749 5749 5750 5752 5752 5754 5756
5747 5746 5745 5744 5742 5741 5738 5736 5735 5734 5733 5732 5731 5731 5731 5732 5733 5734 5735 5737 5737 5739 5740 5740 5741 5741 5742 5742 5742 5742 5743 5743 5747
5738 5738 5737 5736 5735 5733 5731 5729 5728 5727 5726 5725 5724 5723 5723 5724 5725 5726 5727 5729 5730 5731 5732 5733 5733 5732 5732 5735 5735 5735 5735 5735 5736
5730 5729 5729 5728 5727 5726 5724 5721 5719 5719 5718 5717 5716 5716 5715 5715 5717 5718 5719 5720 5721 5722 5723 5724 5724 5724 5724 5725 5727 5726 5726 5727 5729
5721 5721 5720 5720 5719 5717 5715 5714 5712 5711 5710 5710 5709 5708 5707 5707 5708 5709 5710 5711 5712 5713 5713 5714 5714 5715 5715 5716 5717 5718 5717 5719 5720
5712 5712 5711 5711 5710 5708 5707 5706 5704 5703 5702 5702 5701 5700 5700 5699 5699 5700 5701 5701 5702 5703 5704 5705 5705 5705 5706 5706 5707 5708 5709 5710 5710
5702 5702 5701 5700 5700 5699 5698 5697 5696 5695 5694 5693 5693 5692 5691 5691 5691 5692 5692 5693 5693 5694 5694 5695 5696 5696 5696 5697 5697 5698 5699 5701 5701
5691 5691 5690 5689 5689 5688 5688 5687 5686 5685 5684 5684 5684 5683 5683 5682 5682 5682 5682 5683 5683 5684 5684 5684 5685 5686 5687 5687 5687 5687 5688 5692 5693
5680 5679 5679 5678 5677 5677 5677 5676 5676 5675 5674 5673 5673 5673 5673 5673 5673 5672 5672 5672 5673 5673 5674 5674 5674 5675 5676 5676 5677 5678 5678 5681 5684
Wind_Speed
6 6 6 9 13 15 15 16 18 18 19 19 19 20 21 23 25 24 22 23 24 23 24 24 25 24 22 21 21 22 23 24 24
6 7 8 8 11 12 13 13 17 23 22 20 19 19 20 23 23 26 26 24 24 25 28 25 26 26 26 25 24 24 24 24 26
8 9 11 12 13 14 15 15 17 16 18 23 26 25 22 21 22 25 28 28 27 23 28 29 28 28 28 27 27 25 26 25 25
8 10 11 11 13 14 16 18 20 19 19 18 21 26 30 27 23 24 25 29 31 30 28 29 31 30 29 29 28 26 27 28 28
9 11 13 15 15 14 16 18 20 22 23 23 22 24 28 32 31 27 26 25 29 34 32 30 32 33 31 29 28 26 27 29 30
12 13 14 16 17 18 19 19 20 25 26 28 29 28 28 30 34 34 30 27 28 29 34 34 33 34 34 30 27 26 31 30 32
17 17 18 20 21 23 24 23 22 25 30 32 33 33 33 33 32 35 36 32 29 29 31 36 37 36 37 34 34 23 30 28 32
19 19 19 21 23 25 27 28 27 26 29 34 36 36 33 34 34 32 34 36 34 31 32 34 38 40 38 40 40 37 28 30 35
21 21 20 22 23 25 28 29 27 27 31 34 34 35 33 32 34 32 33 35 36 34 31 31 35 41 43 40 46 44 34 32 35
24 23 22 23 24 26 27 29 29 25 29 31 32 32 33 33 31 33 34 34 35 35 33 32 35 38 44 49 43 41 46 38 37
27 26 25 25 25 26 26 29 28 25 28 31 32 32 30 31 32 31 35 34 36 36 35 34 33 38 43 48 55 42 46 49 36
27 27 27 26 26 26 26 27 27 25 28 33 36 35 33 31 31 32 34 35 35 35 38 40 38 36 38 45 48 53 53 48 39
28 28 28 27 26 26 26 28 28 26 27 30 33 35 33 31 31 31 33 35 35 35 36 37 39 40 41 41 43 50 56 55 44
29 30 29 28 27 26 27 28 29 27 27 29 31 33 34 30 31 31 32 34 37 39 41 42 45 45 45 43 44 44 46 54 58
32 32 31 29 28 27 28 29 28 27 26 29 32 33 33 30 30 33 35 37 39 40 39 38 39 43 45 43 47 46 45 46 52
36 34 31 31 30 31 31 31 29 28 25 27 30 33 33 33 32 32 34 36 38 38 38 38 37 40 42 44 42 44 46 46 46
37 36 34 33 34 33 32 31 31 30 28 27 29 32 34 36 36 36 35 35 35 36 36 36 36 38 40 41 42 43 43 43 44
37 37 38 38 37 35 34 33 33 33 33 31 31 32 34 37 39 40 40 39 38 38 39 39 38 38 39 40 42 43 42 42 42
39 40 40 40 39 38 37 36 35 35 37 35 36 35 35 37 39 42 44 44 44 42 41 41 40 40 39 39 40 43 43 41 41
42 41 38 37 39 40 40 40 39 38 40 41 39 39 38 38 40 42 43 45 46 47 48 46 45 44 43 42 42 43 44 42 40
Wind_Direction
293 290 299 299 284 273 274 273 275 276 273 271 269 265 259 254 250 248 246 240 237 239 243 241 242 240 240 238 239 243 242 232 227
292 289 288 292 302 302 294 289 275 267 270 271 270 270 267 263 256 250 245 246 243 237 240 241 242 240 240 241 238 238 242 242 234
320 316 313 303 293 288 284 284 282 283 276 269 266 269 266 266 266 259 251 246 246 241 238 237 240 240 240 240 240 238 242 242 248
303 302 308 314 310 301 294 285 276 268 270 272 274 266 265 265 264 264 262 251 245 245 243 241 237 239 238 241 242 238 241 245 244
296 292 296 305 305 313 310 289 274 274 269 260 263 263 259 260 261 259 258 261 253 249 248 246 243 241 237 235 240 242 243 242 242
300 300 296 301 307 311 307 307 288 268 267 265 262 259 260 257 257 258 256 257 259 255 251 248 244 242 240 234 235 246 249 241 242
293 296 298 301 304 305 308 307 301 281 262 261 267 266 261 259 255 256 258 259 258 258 254 249 246 244 238 232 226 241 235 241 241
282 288 291 293 293 299 303 305 302 290 272 262 262 265 267 263 259 255 257 259 259 255 256 253 248 245 242 235 228 230 239 245 243
275 279 282 288 291 295 302 304 303 290 269 264 263 264 265 264 260 258 257 256 257 260 260 257 254 248 246 241 236 235 236 246 238
273 276 281 284 291 299 302 306 306 287 270 266 265 268 266 263 262 258 256 255 254 256 260 260 255 253 250 250 241 239 232 243 238
267 269 276 285 291 298 301 306 307 288 270 266 265 267 268 265 259 256 256 256 254 253 258 260 258 256 255 251 251 247 237 237 232
266 268 274 279 284 294 301 306 307 285 269 262 263 266 269 269 260 256 256 255 258 257 256 259 262 259 260 258 255 255 249 245 250
268 271 276 277 284 292 302 304 305 288 270 267 268 266 268 269 259 256 256 255 256 259 258 257 261 265 262 264 263 261 258 250 238
272 274 277 278 284 293 301 302 302 293 272 264 269 271 268 265 259 256 256 255 255 259 261 263 263 265 267 264 265 266 263 263 256
274 276 277 278 281 287 294 297 296 290 277 265 269 271 268 259 256 255 255 256 258 260 261 261 264 263 264 267 264 266 267 270 269
275 274 274 274 277 280 285 290 289 286 274 267 267 270 269 262 256 253 253 254 256 259 263 263 264 266 266 267 266 265 267 270 271
274 273 273 273 273 274 277 284 286 283 279 267 264 266 266 263 261 261 260 259 258 260 261 264 268 271 272 273 272 270 269 270 271
274 275 275 272 272 272 275 279 284 283 280 274 264 264 264 263 261 261 263 263 261 262 264 267 267 269 272 275 274 273 271 271 273
274 273 272 273 274 274 276 278 280 282 282 281 277 263 259 259 260 261 262 263 265 265 264 266 267 267 266 269 272 274 274 274 274
271 270 271 274 277 275 275 275 275 277 279 277 282 272 262 257 257 258 259 259 261 262 263 261 262 264 267 266 267 269 272 273 273